Waukegan National Airport (UGN)


Airport Diagram
Current Weather/Forecast (VFR Conditions)
METAR KUGN 300755Z AUTO 31004KT 10SM CLR M01/M06 A3014 RMK AO2 SLP216 T10111056
TAF

All Charts
General
Chart Name Download
AIRPORT DIAGRAM
TAKEOFF MINIMUMS
ALTERNATE MINIMUMS

Departures
Chart Name Download
JORJO FIVE (RNAV)
JORJO FIVE (RNAV), CONT.1
MONKZ FIVE (RNAV)
MONKZ FIVE (RNAV), CONT.1

Arrivals
Chart Name Download
GOPAC TWO (RNAV)

Approaches
Chart Name Download
ILS OR LOC RWY 23
RNAV (GPS) RWY 05
RNAV (GPS) RWY 23